Wind_Speed
11 12 12 9 13 18 20 18 18 17 16 28 26 26 24 22 29 28 25 23 22 17 16 15 17 20 24 27 27 23 21 22 24 25 26 30 25 24 24 25 25 22 20 19
15 17 18 19 20 21 22 18 19 18 17 24 24 28 29 23 32 27 27 26 23 18 14 13 14 15 17 21 26 26 21 22 22 19 21 26 27 27 25 25 26 25 23 22
15 16 18 18 19 19 19 18 19 20 18 22 22 29 20 20 31 28 29 28 25 22 19 16 15 15 15 15 19 25 26 23 24 22 19 19 23 28 29 26 26 25 21 21
14 17 14 15 15 13 15 14 16 16 12 9 8 13 21 19 24 21 21 24 22 22 20 16 15 15 13 13 15 17 21 26 25 23 21 19 20 21 23 27 28 25 22 21
9 12 12 13 14 13 10 17 14 12 15 20 19 12 13 17 23 23 23 26 26 22 18 14 12 11 11 8 8 10 13 17 20 21 21 20 19 19 18 21 25 25 23 22
15 16 15 13 15 14 18 16 15 13 10 10 23 20 18 15 16 14 23 26 24 19 16 12 10 10 9 6 2 2 4 8 14 17 19 20 16 17 16 17 19 22 23 23
13 16 19 18 18 17 16 7 5 5 5 7 9 10 22 16 22 16 20 19 19 17 14 12 11 10 8 6 2 1 1 1 2 6 11 14 15 16 17 17 16 16 21 22
7 7 8 10 11 6 9 11 7 7 9 13 8 8 12 15 17 20 23 24 19 17 16 14 13 12 10 9 6 4 3 2 3 5 4 3 5 8 13 16 14 18 19 20
4 5 7 10 11 11 5 11 14 19 25 11 19 26 30 28 26 26 22 18 19 18 17 16 15 15 15 12 10 7 5 4 3 2 2 2 3 3 3 1 11 23 15 16
11 9 9 12 14 16 17 12 7 7 6 15 20 25 22 23 22 21 21 19 19 18 18 19 19 18 18 16 15 14 12 10 8 7 5 4 3 1 3 3 2 2 6 14
13 12 11 14 12 11 14 16 15 16 18 13 16 21 22 18 16 14 15 15 16 17 20 21 23 23 21 22 22 22 21 21 20 18 16 14 13 12 9 7 7 6 6 7
12 12 13 16 19 22 25 26 20 23 26 29 28 30 24 27 19 15 11 13 16 17 19 22 24 24 25 24 24 24 25 26 26 27 28 27 23 22 20 17 15 14 12 11
9 9 9 9 14 18 18 20 23 25 30 32 23 33 27 21 22 23 17 16 21 21 23 24 25 27 28 28 28 28 28 28 29 30 29 28 28 28 29 27 26 24 21 20
17 20 20 22 26 25 22 22 21 22 20 30 34 39 33 33 31 26 27 27 27 27 29 31 33 35 36 36 36 36 36 36 35 33 32 30 30 30 30 30 32 31 31 33
18 24 24 31 33 36 37 36 40 32 39 31 49 40 47 41 39 40 41 44 35 36 37 40 41 40 40 41 40 39 37 36 35 33 32 31 31 31 31 31 31 31 31 32
21 22 28 39 32 30 37 39 38 41 46 46 52 57 48 46 44 45 38 32 34 37 35 38 40 42 41 35 34 34 34 34 36 34 32 31 30 30 29 29 29 29 29 31
23 25 19 19 20 24 28 35 25 28 32 37 41 43 34 30 25 24 26 28 27 29 32 36 35 35 36 38 37 34 33 33 33 32 29 29 30 30 31 30 29 28 28 28
28 26 16 17 16 10 20 23 26 27 32 29 34 34 28 24 21 24 26 31 30 30 32 34 35 35 33 30 29 29 27 27 28 27 25 23 26 27 28 29 28 28 28 28
23 25 13 8 17 29 38 18 10 19 35 23 26 30 29 24 26 32 30 29 32 32 33 34 32 30 28 27 27 27 25 25 25 25 24 23 25 26 25 27 29 29 28 29
17 24 22 12 9 10 25 19 26 28 32 24 23 24 21 20 22 23 21 23 22 25 27 29 29 32 33 33 31 29 29 28 25 24 25 24 25 28 26 28 30 30 31 31
15 17 26 29 24 26 28 26 28 17 28 25 22 20 20 23 24 27 31 34 36 40 40 41 43 42 40 37 35 34 33 31 32 31 27 26 28 31 30 31 31 31 31 31
14 10 9 10 13 17 17 22 20 27 29 32 34 29 26 25 30 36 40 43 44 42 43 48 50 46 41 41 41 41 38 36 34 35 35 33 32 34 35 33 33 33 34 33
12 14 16 16 21 29 36 41 42 42 43 46 48 47 49 51 46 43 44 47 49 50 48 44 40 38 39 40 41 43 42 41 39 38 38 37 35 36 39 37 36 36 36 36
21 19 26 29 26 22 31 37 39 41 42 43 48 49 49 49 46 43 42 44 43 42 44 43 44 44 43 42 43 47 49 48 45 44 42 41 42 40 41 41 40 38 37 37
28 28 29 30 27 27 28 36 40 42 45 47 48 50 50 49 48 46 45 45 47 48 48 48 46 44 44 46 46 46 46 46 47 47 46 47 47 47 47 46 46 44 41 39
23 23 23 26 30 34 37 40 41 43 43 42 45 47 49 49 47 46 45 45 46 47 46 46 45 44 42 42 41 40 42 44 45 46 46 46 49 50 49 49 49 48 46 43
Wind_Direction
271 271 267 264 254 257 270 269 274 272 276 283 284 281 277 271 280 278 278 283 288 286 286 290 291 277 267 267 265 271 260 261 257 252 250 259 261 259 262 261 268 273 276 266
276 274 258 272 271 271 272 271 273 283 276 280 292 281 278 268 278 272 274 281 282 279 286 293 296 296 283 271 261 262 264 260 259 259 252 246 252 258 259 262 265 271 273 267
260 262 272 275 273 276 278 272 275 277 283 285 290 293 297 266 267 272 269 272 272 272 282 287 288 290 285 279 271 256 253 264 255 252 249 250 253 252 255 257 262 269 270 265
273 264 276 275 277 277 282 266 282 274 288 282 293 288 286 263 275 273 268 268 263 268 275 280 285 283 283 276 267 267 252 245 260 252 251 250 254 254 254 252 256 263 268 271
261 278 277 276 276 275 266 277 278 270 275 288 270 258 281 271 273 278 270 265 265 264 269 277 276 271 277 287 279 267 263 254 247 246 251 251 252 253 252 246 248 256 264 265
265 279 277 274 277 268 265 282 289 285 275 262 270 240 280 279 269 256 265 266 263 263 267 266 254 265 269 272 292 316 271 254 251 246 243 245 241 244 243 244 247 250 255 259
288 285 281 271 268 274 264 268 287 246 222 256 293 272 249 274 279 264 276 270 262 255 249 245 238 249 244 241 226 154 52 39 224 241 242 245 239 234 229 232 234 249 254 262
280 273 274 268 248 265 266 231 251 287 291 310 312 255 286 279 280 279 270 265 256 244 240 240 236 235 238 234 225 200 178 148 125 108 110 146 231 248 239 233 240 254 249 265
263 256 279 276 274 261 260 231 260 274 274 274 270 277 281 278 282 266 264 259 249 245 242 243 236 233 236 241 248 240 228 211 191 137 108 96 92 74 61 296 237 234 230 245
259 281 279 293 283 277 259 258 269 243 270 273 276 280 273 283 284 283 273 261 254 249 248 245 238 237 241 250 261 265 267 269 267 264 269 263 260 338 6 10 9 315 270 258
265 266 282 287 283 269 273 255 249 263 257 276 280 272 273 281 291 285 262 256 253 249 248 249 249 251 254 259 263 268 271 278 283 284 281 282 276 275 283 308 320 327 331 319
266 274 266 274 276 286 275 263 257 251 266 258 262 270 273 273 271 271 265 271 262 254 254 255 259 262 266 268 269 269 271 273 275 277 281 281 278 276 274 275 284 297 310 317
264 257 289 290 291 294 273 276 266 252 257 262 264 271 275 280 277 271 266 273 281 274 262 262 266 270 272 272 273 273 272 271 273 276 277 277 278 277 272 272 274 281 284 294
272 258 258 265 284 292 280 281 272 259 260 265 263 271 271 274 271 269 276 281 278 270 264 264 266 270 273 276 278 279 280 279 279 280 278 274 272 272 271 270 270 270 275 282
258 265 277 285 285 280 277 276 274 256 262 255 270 271 269 269 272 274 276 278 275 271 266 267 267 269 273 277 278 280 281 283 285 284 283 283 281 277 274 271 269 267 266 267
264 270 281 282 287 283 281 280 275 270 270 262 272 274 283 284 280 280 281 275 267 267 263 263 267 272 277 277 277 278 280 280 279 280 281 281 281 281 278 275 273 270 267 263
271 270 274 277 282 289 286 294 286 280 277 274 272 290 295 287 282 280 269 272 272 270 264 264 266 269 276 279 280 279 277 275 275 277 278 277 278 279 280 278 276 272 267 262
271 273 258 274 287 269 284 288 290 283 286 285 284 289 293 287 282 277 279 283 281 275 269 268 273 279 281 281 280 278 275 273 274 273 275 276 278 276 277 278 276 273 269 265
269 261 252 246 258 278 291 307 292 287 296 289 279 282 285 291 288 289 290 278 271 271 272 277 282 282 281 279 279 279 276 271 269 271 274 275 274 276 275 275 273 270 267 266
270 251 232 242 257 271 289 305 300 300 289 304 296 287 283 287 286 300 280 282 285 276 273 274 282 288 286 281 277 278 277 273 265 266 264 261 260 265 268 268 267 266 266 262
268 255 241 252 255 264 286 295 296 280 295 298 288 281 282 283 284 275 273 276 279 286 285 285 286 288 287 280 278 275 273 272 267 264 262 259 260 263 264 265 264 263 264 263
272 264 239 256 262 275 288 297 288 283 286 285 285 279 271 271 275 275 277 278 275 274 277 285 286 286 282 278 276 276 273 269 266 262 260 257 256 258 261 261 262 263 263 262
264 266 269 259 266 278 287 284 287 291 291 289 290 286 281 282 280 276 277 275 274 279 288 286 280 279 278 276 274 272 272 270 265 262 258 255 254 255 253 256 258 260 262 263
288 286 270 288 297 290 285 286 287 294 294 291 291 290 288 287 286 284 285 281 280 282 285 282 279 278 278 276 277 276 273 272 270 263 258 254 251 247 248 253 255 256 259 260
292 287 296 290 301 294 294 295 298 295 292 290 288 287 285 282 281 282 281 281 281 282 282 281 281 280 278 276 275 272 273 272 270 267 262 255 252 250 250 252 254 256 257 258
303 301 295 293 301 301 301 298 296 295 297 295 297 293 284 281 279 278 277 278 279 280 280 279 279 280 280 280 278 270 268 269 269 266 264 260 254 251 250 251 252 253 256 256
Height
3111 3112 3112 3114 3112 3111 3109 3109 3108 3108 3106 3098 3097 3094 3094 3092 3088 3086 3086 3085 3083 3082 3080 3078 3077 3076 3076 3077 3077 3078 3077 3078 3080 3081 3083 3086 3087 3089 3091 3092 3094 3095 3097 3098
3111 3109 3108 3108 3107 3106 3105 3103 3102 3101 3099 3095 3091 3086 3087 3086 3081 3081 3081 3080 3079 3078 3077 3075 3073 3072 3071 3071 3071 3072 3073 3074 3075 3076 3078 3080 3082 3084 3086 3087 3089 3090 3092 3094
3107 3106 3105 3104 3103 3103 3102 3101 3101 3100 3096 3092 3087 3078 3077 3078 3076 3076 3075 3075 3075 3074 3073 3072 3071 3069 3068 3067 3066 3067 3068 3068 3070 3071 3073 3075 3077 3078 3081 3083 3085 3086 3087 3088
3103 3100 3101 3101 3101 3101 3099 3097 3096 3095 3095 3092 3088 3079 3076 3074 3071 3071 3070 3069 3070 3070 3069 3068 3068 3066 3064 3064 3063 3062 3063 3064 3065 3067 3068 3070 3072 3073 3075 3077 3079 3082 3083 3085
3101 3099 3098 3098 3099 3098 3097 3093 3092 3092 3091 3089 3085 3086 3070 3070 3066 3066 3066 3064 3065 3066 3066 3065 3065 3064 3062 3061 3060 3059 3059 3060 3061 3063 3064 3066 3067 3069 3070 3072 3075 3077 3080 3082
3098 3097 3096 3096 3095 3095 3093 3093 3090 3089 3089 3084 3077 3078 3066 3068 3064 3064 3061 3061 3061 3062 3063 3063 3063 3062 3061 3060 3058 3057 3057 3057 3057 3058 3060 3062 3063 3065 3066 3069 3071 3074 3075 3077
3095 3094 3092 3093 3092 3090 3091 3094 3091 3086 3086 3077 3072 3071 3066 3066 3062 3062 3059 3058 3058 3059 3060 3060 3060 3060 3059 3059 3057 3056 3056 3055 3055 3055 3056 3057 3059 3061 3063 3065 3068 3069 3070 3071
3093 3091 3090 3089 3090 3092 3089 3093 3092 3081 3075 3074 3072 3068 3062 3062 3060 3058 3056 3055 3055 3056 3057 3058 3058 3058 3057 3057 3056 3055 3055 3054 3054 3054 3054 3055 3055 3056 3057 3060 3063 3064 3065 3067
3091 3089 3087 3088 3087 3090 3088 3088 3090 3086 3082 3079 3069 3065 3061 3056 3057 3055 3053 3052 3052 3053 3054 3055 3055 3055 3056 3055 3055 3055 3055 3054 3055 3054 3054 3054 3054 3054 3055 3055 3057 3059 3060 3062
3087 3087 3084 3085 3086 3086 3085 3085 3086 3085 3078 3068 3060 3058 3057 3052 3052 3052 3050 3050 3050 3051 3052 3052 3052 3052 3053 3054 3053 3053 3053 3053 3053 3053 3052 3052 3053 3053 3055 3055 3055 3056 3056 3057
3085 3084 3084 3082 3082 3082 3080 3079 3079 3080 3075 3065 3057 3049 3051 3050 3049 3047 3046 3046 3046 3047 3048 3047 3048 3048 3049 3050 3050 3049 3049 3050 3050 3050 3050 3050 3050 3051 3052 3052 3053 3053 3053 3053
3082 3080 3079 3080 3077 3076 3074 3073 3075 3073 3064 3059 3056 3043 3049 3046 3047 3046 3044 3043 3042 3043 3043 3043 3044 3044 3044 3045 3045 3045 3045 3045 3045 3045 3045 3046 3047 3047 3048 3049 3050 3050 3050 3050
3078 3076 3076 3071 3073 3070 3066 3066 3065 3064 3059 3052 3051 3040 3043 3044 3042 3041 3041 3039 3039 3039 3038 3038 3038 3038 3037 3037 3038 3038 3039 3039 3039 3040 3040 3041 3041 3042 3043 3044 3045 3046 3046 3047
3074 3071 3072 3069 3068 3067 3062 3061 3060 3059 3053 3045 3041 3036 3040 3039 3037 3036 3036 3034 3034 3034 3033 3031 3031 3030 3030 3029 3028 3028 3028 3029 3029 3030 3031 3033 3034 3035 3036 3037 3038 3039 3041 3042
3069 3064 3063 3060 3060 3058 3054 3051 3049 3048 3041 3042 3029 3031 3026 3030 3028 3028 3028 3027 3025 3024 3024 3022 3021 3021 3020 3020 3019 3018 3018 3019 3019 3020 3021 3022 3023 3025 3026 3028 3030 3031 3033 3035
3063 3059 3056 3049 3052 3048 3041 3040 3038 3034 3029 3026 3022 3014 3021 3020 3019 3016 3016 3015 3014 3014 3014 3014 3013 3012 3010 3010 3010 3011 3011 3010 3010 3011 3012 3013 3013 3014 3016 3018 3020 3022 3025 3026
3056 3053 3052 3045 3046 3043 3035 3029 3025 3022 3020 3021 3014 3009 3010 3008 3009 3008 3007 3006 3005 3005 3005 3004 3004 3003 3002 3002 3002 3002 3001 3001 3001 3002 3004 3004 3004 3005 3006 3008 3010 3012 3014 3016
3048 3049 3049 3044 3044 3038 3026 3022 3020 3017 3015 3014 3006 3006 3006 3003 3001 3000 3001 3000 2999 2997 2997 2996 2996 2995 2994 2994 2993 2992 2992 2993 2993 2994 2995 2996 2996 2997 2998 2999 3000 3002 3005 3007
3044 3044 3044 3041 3036 3027 3018 3017 3015 3012 3005 3008 3003 3001 3000 2998 2993 2993 2992 2991 2991 2990 2989 2988 2987 2987 2987 2986 2985 2984 2985 2985 2985 2986 2987 2989 2989 2989 2991 2991 2992 2994 2995 2998
3038 3037 3039 3035 3032 3023 3014 3015 3010 3008 3000 3004 3000 2998 2996 2994 2990 2990 2986 2985 2985 2984 2983 2981 2980 2980 2978 2978 2977 2976 2976 2977 2978 2977 2978 2979 2980 2980 2982 2983 2984 2985 2987 2989
3033 3031 3028 3025 3024 3014 3010 3008 3006 3004 3001 2995 2994 2992 2990 2988 2987 2983 2982 2979 2978 2976 2975 2973 2971 2970 2969 2968 2968 2968 2968 2968 2969 2970 2971 2972 2972 2972 2974 2975 2976 2978 2979 2981
3028 3027 3023 3021 3018 3010 3007 3003 3001 2996 2993 2989 2987 2984 2980 2979 2977 2974 2972 2970 2969 2968 2966 2963 2961 2959 2959 2958 2956 2956 2957 2958 2959 2960 2961 2962 2963 2964 2965 2967 2968 2969 2971 2973
3020 3019 3018 3016 3008 3005 3001 2993 2989 2986 2982 2979 2976 2975 2971 2968 2965 2962 2959 2957 2955 2954 2953 2951 2951 2949 2949 2947 2945 2944 2945 2945 2947 2948 2950 2951 2953 2954 2955 2957 2959 2960 2962 2964
3011 3009 3005 3004 2999 2996 2991 2985 2980 2976 2972 2968 2964 2959 2956 2953 2951 2947 2945 2943 2942 2941 2940 2940 2939 2938 2937 2936 2934 2932 2931 2931 2932 2934 2936 2938 2940 2943 2945 2946 2948 2950 2952 2954
3005 3001 2998 2992 2989 2984 2985 2974 2970 2967 2962 2957 2952 2946 2942 2939 2938 2935 2933 2931 2929 2928 2927 2925 2924 2923 2922 2921 2920 2919 2918 2917 2917 2918 2921 2923 2926 2929 2931 2933 2936 2939 2941 2944
2995 2993 2990 2984 2979 2975 2972 2966 2960 2954 2950 2945 2937 2932 2929 2924 2922 2921 2920 2919 2917 2915 2913 2911 2909 2907 2907 2906 2906 2905 2904 2903 2903 2903 2905 2907 2909 2913 2916 2919 2922 2925 2929 2931